Content
SEND FEEDBACK

Daily
Averages
Monthly
Summary
United States of America

DOWNIEVILLE, CALIFORNIA


Home > North America > United States > California
Elevation: 5045 feet     Latitude: 39 34N     Longitude: 120 38W

WEATHER
 
SELECT A DAY
Number of Records: 236,014;   Date Range: 1/1/95 - 12/17/14
 
SHARE

PRINT THIS DATA

[ ← Previous Day ]
WEATHER ALMANAC - DECEMBER 31, 2013
[ Next Day → ]
[ °C ]   °F
Weather ElementAverageHighLow
Temperature50.5 °F55 °F (12:52 pm)46.9 °F (2:52 am)
Dewpoint12.4 °F21 °F (2:52 pm)5 °F (3:52 am)
Humidity22.2 %32 % (4:52 pm)18 % (3:52 am)
Barometer30.17 in30.21 in (7:52 am)30.13 in (1:52 pm)
Wind Speed4.5 mph9.2 mph (11:52 pm)
Weather ElementAverage
Visibility10 mi
Wind DirectionE (90 °)

Weather ElementTotal
Precipitation---
Heating Degree Days14.1 (Base 65)
Growing Degree Days1 (Base 50)
Averaged from 23 records on December 31, 2013
WEATHER CONDITIONS BREAKOUT
WIND DIRECTION BREAKOUT
WEATHER BY HOUR - DECEMBER 31, 2013
[ °C ]   °F
Local TimeTemperatureDewpointHumidityBarometerVisibilityWind DirectionWind SpeedGust SpeedPrecipitationEventsConditions
1:52 AM48.0 °F8.1 °F20 %30.19 in10.0 miSE (140°)5.8 mphScattered Clouds
2:52 AM46.9 °F6.1 °F19 %30.19 in10.0 miSE (140°)4.6 mphOvercast
3:52 AM46.9 °F5.0 °F18 %30.19 in10.0 miSE (130°)4.6 mphClear
4:52 AM46.9 °F5.0 °F18 %30.18 in10.0 miESE (120°)3.5 mphClear
5:52 AM46.9 °F5.0 °F18 %30.18 in10.0 miSE (140°)4.6 mphClear
6:52 AM46.9 °F5.0 °F18 %30.20 in10.0 miSE (140°)4.6 mphClear
7:52 AM46.9 °F6.1 °F19 %30.21 in10.0 miESE (110°)4.6 mphClear
8:52 AM48.0 °F10.0 °F22 %30.21 in10.0 miEast (100°)5.8 mphClear
9:52 AM52.0 °F12.9 °F21 %30.21 in10.0 miCalmMostly Cloudy
10:52 AM52.0 °F12.9 °F21 %30.20 in10.0 miSE (140°)4.6 mphScattered Clouds
11:52 AM53.1 °F10.0 °F18 %30.17 in10.0 miSSE (160°)6.9 mphClear
12:52 PM55.0 °F12.9 °F19 %30.15 in10.0 miCalmClear
1:52 PM55.0 °F19.0 °F24 %30.13 in10.0 miWSW (250°)3.5 mphClear
2:52 PM54.0 °F21.0 °F28 %30.14 in10.0 miWest (270°)4.6 mphClear
3:52 PM54.0 °F21.0 °F28 %30.14 in10.0 miCalmClear
4:52 PM50.0 °F21.0 °F32 %30.16 in10.0 miCalmClear
5:52 PM50.0 °F19.9 °F31 %30.15 in10.0 miNE (40°)5.8 mphClear
6:52 PM52.0 °F17.1 °F25 %30.14 in10.0 miNE (50°)5.8 mphClear
7:52 PM52.0 °F14.0 °F22 %30.15 in10.0 miNE (50°)5.8 mphClear
8:52 PM51.1 °F10.0 °F19 %30.16 in10.0 miVariable6.9 mphClear
9:52 PM51.1 °F15.1 °F24 %30.14 in10.0 miVariable6.9 mphClear
10:52 PM51.1 °F16.0 °F25 %30.14 in10.0 miNE (50°)5.8 mphClear
11:52 PM51.1 °F12.9 °F22 %30.14 in10.0 miNE (40°)9.2 mphClear
Hourly data recorded from KBLU, located miles away from Downieville, California







STORIES FROM OUR PARTNERS